Lufkin, TX

11:21 PM CST on December 17, 2017 (GMT -0600)
Angelina County

Weather History for KLFK - March, 2014

Change the Weather History Date:

Monday, March 24, 2014

  Actual Average Record
Temperature  
Mean Temperature 58 °F 61 °F  
Max Temperature 69 °F 73 °F 88 °F (1907)
Min Temperature 47 °F 50 °F 28 °F (1952)
Degree Days  
Heating Degree Days 7 5  
Month to date heating degree days 222 178  
Since 1 July heating degree days 2025 1812  
Cooling Degree Days 0 2  
Month to date cooling degree days 17 27  
Year to date cooling degree days 35 46  
Growing Degree Days 7 (Base 50)    
Moisture  
Dew Point 40 °F    
Average Humidity 62    
Maximum Humidity 86    
Minimum Humidity 37    
Precipitation  
Precipitation 0.00 in 0.12 in 2.71 in (1973)
Month to date precipitation 1.83 2.98  
Year to date precipitation 4.65 11.03  
Snow  
Snow 0.00 in - - ()
Month to date snowfall 0.0  
Since 1 July snowfall 3.2  
Snow Depth 0.00 in    
Sea Level Pressure  
Sea Level Pressure 30.12 in    
Wind  
Wind Speed 4 mph (NE)    
Max Wind Speed 10 mph    
Max Gust Speed 16 mph    
Visibility 10 miles    
Events      
T = Trace of Precipitation, MM = Missing Value Source: NWS Daily Summary

Daily Weather History Graph

Daily Weather History Graph

Search for Another Location

Airport or City:

Trip Planner

Search our weather history database for the weather conditions in past years. The results will help you decide how hot, cold, wet, or windy it might be!

Date:

Astronomy

Mar. 24, 2014 Rise Set
Actual Time 7:17 AM CDT 7:33 PM CDT
Civil Twilight 6:53 AM CDT 7:57 PM CDT
Nautical Twilight 6:25 AM CDT 8:25 PM CDT
Astronomical Twilight 5:56 AM CDT 8:54 PM CDT
Moon 2:27 AM CDT (3/24) 1:20 PM CDT (3/24)
Length of Visible Light 13h 03m
Length of Day
12h 15m
Last Quarter, 43% of the Moon is Illuminated
Mar 24
Last Quarter
Mar 30
New
Apr 7
First Quarter
Apr 15
Full
Apr 22
Last Quarter

Hourly Weather History & Observations

Time (CDT) Temp. Dew Point Humidity Pressure Visibility Wind Dir Wind Speed Gust Speed Precip Events Conditions
12:53 AM 53.1 °F 43.0 °F 69% 30.22 in 10.0 mi NE 6.9 mph - N/A   Scattered Clouds
1:53 AM 53.1 °F 42.1 °F 66% 30.21 in 10.0 mi NE 8.1 mph - N/A   Overcast
2:53 AM 52.0 °F 42.1 °F 69% 30.19 in 10.0 mi NE 5.8 mph - N/A   Overcast
3:53 AM 51.1 °F 39.9 °F 66% 30.17 in 10.0 mi ENE 3.5 mph - N/A   Scattered Clouds
4:53 AM 50.0 °F 39.0 °F 66% 30.17 in 10.0 mi NE 4.6 mph - N/A   Mostly Cloudy
5:53 AM 48.9 °F 39.0 °F 69% 30.16 in 10.0 mi NE 4.6 mph - N/A   Mostly Cloudy
6:53 AM 50.0 °F 37.0 °F 61% 30.17 in 10.0 mi ENE 4.6 mph - N/A   Overcast
7:53 AM 50.0 °F 37.0 °F 61% 30.17 in 10.0 mi NNE 3.5 mph - N/A   Overcast
8:53 AM 51.1 °F 36.0 °F 56% 30.18 in 10.0 mi NNE 6.9 mph - N/A   Overcast
9:53 AM 53.1 °F 35.1 °F 50% 30.18 in 10.0 mi NE 8.1 mph - N/A   Overcast
10:53 AM 55.9 °F 37.0 °F 49% 30.17 in 10.0 mi ENE 5.8 mph - N/A   Scattered Clouds
11:53 AM 59.0 °F 37.9 °F 46% 30.14 in 10.0 mi Variable 4.6 mph - N/A   Mostly Cloudy
12:53 PM 62.1 °F 39.0 °F 43% 30.11 in 10.0 mi ENE 3.5 mph - N/A   Partly Cloudy
1:53 PM 66.0 °F 39.0 °F 37% 30.07 in 10.0 mi ENE 6.9 mph - N/A   Clear
2:53 PM 66.9 °F 39.0 °F 36% 30.04 in 10.0 mi Calm Calm - N/A   Clear
3:53 PM 66.9 °F 41.0 °F 39% 30.03 in 10.0 mi Calm Calm - N/A   Clear
4:53 PM 66.9 °F 41.0 °F 39% 30.01 in 10.0 mi ESE 4.6 mph - N/A   Clear
5:53 PM 66.9 °F 39.9 °F 37% 30.02 in 10.0 mi Calm Calm - N/A   Clear
6:53 PM 66.0 °F 43.0 °F 43% 30.04 in 10.0 mi NNE 4.6 mph - N/A   Overcast
7:53 PM 63.0 °F 45.0 °F 52% 30.04 in 10.0 mi ESE 4.6 mph - N/A   Scattered Clouds
8:53 PM 55.0 °F 45.0 °F 69% 30.07 in 10.0 mi North 4.6 mph - N/A   Clear
9:53 PM 53.1 °F 45.0 °F 74% 30.11 in 10.0 mi North 3.5 mph - N/A   Clear
10:53 PM 52.0 °F 45.0 °F 77% 30.12 in 10.0 mi Calm Calm - N/A   Clear
11:53 PM 48.9 °F 44.1 °F 83% 30.14 in 10.0 mi Calm Calm - N/A   Clear